Registrering Status Plassering
LN-FAW Operativ Ski - ENSI 

Søk
Kontakt informasjon

Follo flyklubb.
Postboks 226, N-1401 Ski
Epost: post@follo-flyklubb.no

Tel: 47 25 54 90
Du er her: Hovedside

Velkommen til Follo flyklubb

 

Follo flyklubb er en flyklubb med primærbase på Ski flyplass, og sekundærbase (vinterbase) på Rakkestad flyplass. Disse websidene er ment som en informasjonskanal til flyklubbens medlemmer, og andre som måtte være interessert i Follo flyklubbs virksomhet. Har du kommentarer eller bidrag du ønsker å dele med flyklubben, send oss en melding her.

Har noen av flyklubbens medlemmer forslag til turer, aktiviteter eller kurs- og infokvelder dere ønsker at vi deltar på eller avholder, så gi beskjed til styret via epost.

 

Før flyturen: Ta en sjekk på datoer i sertifikatene dine. Husk at det er forskjell på gyldighetsdato for PPL-sertifikatet og klasserettighet, som f.eks. SEP. Her er noen nyttige spørsmål, og litt om rettigheter her.

ENGM 221020Z VRB04KT 9999 SCT032 22/13 Q1007 NOSIG
ENTO 221020Z 12006KT 060V190 9999 FEW029 22/14 Q1007
ENRY 221020Z 11006KT 060V170 CAVOK 23/12 Q1007
ENSN 090850Z 20010G22KT 150V240 CAVOK 07/03 Q1000
ENCN 221020Z 27010KT 240V310 CAVOK 23/09 Q1008
ENZV 221020Z 24007KT 220V300 CAVOK 18/11 Q1011 NOSIG
ENFL 221020Z AUTO 20012KT 9999NDV BKN037/// OVC066/// 17/11 Q1008
ENFG 220850Z 19007KT CAVOK 06/M03 Q1014
ENNO 160550Z VRB02KT 9999 FEW011 16/13 Q1016
 

Leie av LN-FAW

Follo flyklubbs medlemmer har anledning til å leie LN-FAW, booking skjer via MyWebLog. Husk å loggføre turen etter turen.